TimeEDT,TemperatureF,Dew PointF,Humidity,Sea Level PressureIn,VisibilityMPH,Wind Direction,Wind SpeedMPH,Gust SpeedMPH,PrecipitationIn,Events,Conditions,WindDirDegrees,DateUTC
12:56 AM,63.0,60.1,90,30.03,8.0,ENE,5.8,-,N/A,,Clear,70,2013-10-05 04:56:00
1:23 AM,62.6,60.8,94,30.05,8.0,NE,3.5,-,N/A,,Scattered Clouds,40,2013-10-05 05:23:00
1:56 AM,63.0,60.1,90,30.04,8.0,NE,4.6,-,N/A,,Overcast,40,2013-10-05 05:56:00
2:56 AM,63.0,60.1,90,30.04,7.0,Calm,Calm,-,N/A,,Mostly Cloudy,0,2013-10-05 06:56:00
3:56 AM,62.1,59.0,90,30.04,6.0,Calm,Calm,-,N/A,,Overcast,0,2013-10-05 07:56:00
4:56 AM,62.1,60.1,93,30.05,6.0,Calm,Calm,-,N/A,,Overcast,0,2013-10-05 08:56:00
5:56 AM,62.1,59.0,90,30.05,6.0,NE,4.6,-,N/A,,Mostly Cloudy,40,2013-10-05 09:56:00
6:56 AM,61.0,59.0,93,30.06,4.0,East,3.5,-,N/A,,Overcast,90,2013-10-05 10:56:00
7:40 AM,62.6,59.0,88,30.08,2.0,NNE,4.6,-,N/A,,Overcast,30,2013-10-05 11:40:00
7:56 AM,62.1,59.0,90,30.08,2.5,Calm,Calm,-,N/A,,Overcast,0,2013-10-05 11:56:00
8:56 AM,63.0,60.1,90,30.09,1.5,Calm,Calm,-,N/A,,Overcast,0,2013-10-05 12:56:00
9:17 AM,64.4,60.8,88,30.10,5.0,NNE,4.6,-,N/A,,Overcast,20,2013-10-05 13:17:00
9:56 AM,64.9,60.1,84,30.10,6.0,North,3.5,-,N/A,,Overcast,360,2013-10-05 13:56:00
10:56 AM,64.9,60.1,84,30.09,8.0,NNE,4.6,-,N/A,,Overcast,20,2013-10-05 14:56:00
11:56 AM,66.0,61.0,84,30.09,10.0,Calm,Calm,-,N/A,,Overcast,0,2013-10-05 15:56:00
12:56 PM,68.0,61.0,78,30.08,10.0,Calm,Calm,-,N/A,,Overcast,0,2013-10-05 16:56:00
1:56 PM,69.1,62.1,78,30.05,10.0,Calm,Calm,-,N/A,,Mostly Cloudy,0,2013-10-05 17:56:00
2:56 PM,71.1,62.1,73,30.04,10.0,Calm,Calm,-,N/A,,Scattered Clouds,0,2013-10-05 18:56:00
3:56 PM,71.1,63.0,75,30.04,10.0,South,4.6,-,N/A,,Partly Cloudy,170,2013-10-05 19:56:00
4:56 PM,70.0,62.1,76,30.04,10.0,SSE,4.6,-,N/A,,Clear,160,2013-10-05 20:56:00
5:56 PM,68.0,62.1,81,30.05,10.0,SE,4.6,-,N/A,,Partly Cloudy,140,2013-10-05 21:56:00
6:56 PM,64.0,61.0,90,30.05,9.0,SE,3.5,-,N/A,,Clear,140,2013-10-05 22:56:00
7:56 PM,66.0,62.1,87,30.06,9.0,ESE,3.5,-,N/A,,Mostly Cloudy,110,2013-10-05 23:56:00
8:56 PM,66.0,63.0,90,30.07,7.0,Calm,Calm,-,N/A,,Mostly Cloudy,0,2013-10-06 00:56:00
9:16 PM,64.4,62.6,94,30.09,2.0,SSE,3.5,-,N/A,,Mostly Cloudy,150,2013-10-06 01:16:00
9:18 PM,64.4,62.6,94,30.09,2.0,SSE,3.5,-,N/A,,Overcast,150,2013-10-06 01:18:00
9:56 PM,64.9,63.0,93,30.08,1.0,South,4.6,-,N/A,,Overcast,170,2013-10-06 01:56:00
10:56 PM,64.9,63.0,93,30.09,1.0,South,4.6,-,N/A,,Overcast,190,2013-10-06 02:56:00
11:56 PM,64.9,62.1,90,30.08,3.0,SE,5.8,-,0.00,,Overcast,140,2013-10-06 03:56:00